Regional Weather Roundup
Issued by NWS Spokane, WA

Home | Current Version | Previous Version | Text Only | Print | Product List | Glossary On
Versions: 1 2 3 4 5 6 7 8 9 10 11 12 13 14 15 16 17 18 19 20 21 22 23 24 25 26 27 28 29 30 31 32 33 34 35 36 37 38 39 40 41 42 43 44 45 46 47 48 49 50
759
NZUS01 KOTX 081325
RWROTX

Eastern Washington/Northern Idaho Roundup
National Weather Service, Spokane WA
500 AM PST THU DEC 08 2016

Note: "fair" indicated few or no clouds below 12,000 feet with no
significant weather and/or obstructions to visibility.

...Northeast Washington and Northern Idaho Panhandle...

CITY           SKY/WX    TMP DP  RH WIND       PRES   REMARKS
Spokane Intl   PTCLDY    14   5  67 NE8       30.32F WCI   3
Spokane Downto CLEAR     17   8  67 CALM      30.37F
Coeur d Alene  CLEAR     11   6  81 NE10      30.36F WCI  -3
Deer Park      CLEAR     15   3  59 NE12      30.36F WCI   2
Sandpoint      CLEAR     14   3  62 NE13G18   30.41S WCI   0
Bonners Ferry  FAIR      10   0  61 CALM      30.45S

...Southeast Washington and southern Idaho Panhandle...

CITY           SKY/WX    TMP DP  RH WIND       PRES   REMARKS
Walla Walla    FOG       16  13  88 E5        30.31S VSB 1/4 WCI   9
Pullman/Moscow PTCLDY    16   9  74 E13       30.27F WCI   2
Lewiston       PTCLDY    13   9  84 SE6       30.35F WCI   4
Lowell           N/A     17  12  80 N5        30.45F WCI  10
Grangeville    CLOUDY     9   5  85 CALM      30.23F VSB 1/2

...Columbia Basin...

CITY           SKY/WX    TMP DP  RH WIND       PRES   REMARKS
Ephrata        PTCLDY    14   4  64 N8        30.37F WCI   3
Moses Lake     PTCLDY    14   9  80 N8        30.38F WCI   3
Pasco          PTCLDY    14  11  87 SE3       30.41F
Richland       MOSUNNY   17  13  84 N6        30.40F WCI   9
Hermiston      PTCLDY    13  10  88 CALM      30.34F
Pendleton      MOCLDY     8   5  87 CALM      30.26S FOG

...East Slopes Cascades...

CITY           SKY/WX    TMP DP  RH WIND       PRES   REMARKS
The Dalles     MOCLDY    25  19  78 E6        30.35F WCI  18
Yakima         PTCLDY    22  12  65 SW7       30.35F WCI  13
Ellensburg     PTCLDY    15   9  76 N8        30.31F WCI   4
Stampede Pass  MOCLDY    11  10  96 E8        30.05F WCI  -1
Wenatchee      CLOUDY    21  12  68 CALM      30.40F
Omak           CLOUDY    18   6  59 N14       30.45F WCI   4
Chelan           N/A     20   3  49 NW6         N/A  WCI  12
Sunnyside      MOSUNNY   17  13  84 CALM      30.35F

...Southern British Columbia...

CITY           SKY/WX    TMP DP  RH WIND       PRES   REMARKS
Penticton      FLURRIES  19   9  63 N9        30.51F WCI   9
Cranbrook      FLURRIES  -6  -9  84 VRB2      30.46S
Osoyoos          N/A     21  10  63 N6          N/A  WCI  14
Creston          N/A     12   1  62 NE12G22     N/A  WCI  -2

...Western Montana...

CITY           SKY/WX    TMP DP  RH WIND       PRES   REMARKS
Kalispell      PTSUNNY    2  -8  63 N9        30.43F WCI -13
Libby            N/A      9   7  92 CALM      30.45F
Missoula       PTCLDY     7   0  73 E9        30.40F WCI  -7

...Neighboring Cities...

CITY           SKY/WX    TMP DP  RH WIND       PRES   REMARKS
Seattle        PTCLDY    33  14  45 E16       30.14F WCI  23
Portland       MOCLDY    33  16  49 E28G44    30.05F WCI  20
Boise          CLOUDY    18   9  68 SE9       30.26F WCI   7
Great Falls    CLOUDY    -3  -9  75 NE6       30.48F WCI -15
Calgary        CRYSTALS -11 -17  77 NW2       30.50F



USA.gov is the U.S. government's official web portal to all federal, state and local government web resources and services.